全球星 M001星 (GLOBALSTAR M001)

导读

GLOBALSTAR M001是全球星(Globalstar)卫星移动通信系统的首颗卫星,由国际合作组织发起打造,于1998年2月14日从美国卡纳维拉尔角空军基地发射,使用德尔塔7420-10C火箭送入太空,国际卫星标识符为1998-008-A,运行在近地轨道,轨道高度约1514千米,倾角52.0度,为全球星系统的低轨卫星移动通信网络构建奠定了基础,助力提供全球范围的话音、数据、定位等移动通信服务。

Basic Information
目录编号:
25162
目录名称:
GLOBALSTAR M001
国际标识:
1998-008A
轨道中心:
EARTH
卫星名称:
全球星 M001星
卫星全名:
全球星 M001星 (GLOBALSTAR M001)
卫星状态:
在轨 (已飞行10437 天)
发射日期:
1998-02-14 UTC
国别 :
(GLOB)
星等 :
--
This satellite is enrolled in the Space Conjunction Data Service (SCDS) and the current flight risk assessment level is: No High Risk
Orbit Information
数据来源 国际轨道数据 AOE轨道数据
星历时间 2026-09-12T03:50:12+0800
10小时前
查看轨道信息
2026-09-09T22:00:00+0800
2天前
查看轨道信息
半长轴 7892.223km 7892.226km
偏心率 0.0002026 0.0001959
轨道倾角 52.002° 52.002°
近地点辐角 111.869° 103.189°
升交点赤经 98.656° 105.186°
平近点角 263.279° 347.848°
近地点 1512.487km 1512.542km
远地点 1515.685km 1515.636km
周期 116.294分钟 116.294分钟
每日圈数 12.382369 12.382362
Detailed Information
固有亮度:
5
最大亮度:
7.9
平衡模式:
三轴稳定
覆盖范围:
全球
运营商:
全球星公司
运营商所在国:
美国
使用方式:
暂无
Satellite Introduction
全球星星座由48颗卫星加8颗备份星组成。这些卫星分布在8个倾角为52度的圆形轨道平面上,每个轨道平面6颗卫星,另有1 颗备用星。轨道高度约为1414km,传输时延和处理时延小于300ms,整个系统的覆盖区为南北纬70度以内的地区。该卫星仍在工作。
2D Orbit Map
3D Orbit Map
Orbit Altitude Analysis Chart
Orbit Inclination Analysis Chart
Orbit Comprehensive Analysis Chart
View Comprehensive Chart
Conjunction Data List
Event ID Objects TCA Miss Dist (km) Collision Risk Probability Collision Risk Index (CRI) Action
CDM_260912-212900-715302-516229
2026-09-12T
21:29:48+0000
2.185 km
极远距离
2.097773E-6 低风险 0.41
Miss Distance Evolution Trend with All Objects
Collision Probability Evolution Trend with All Objects